Preview of NWS' New Version of Forecast
This preview is not operational and should not be used for support decisions.

Regional Weather Roundup (RWR)

Issued by National Weather Service (NWS)

                            
000
ASUS45 KBOU 260510
RWRCO 

WEATHER ROUNDUP FOR COLORADO
NATIONAL WEATHER SERVICE DENVER/BOULDER CO
1100 PM MDT THU APR 25 2019

NOTE: "FAIR" INDICATES FEW OR NO CLOUDS BELOW 12000 FEET WITH NO
SIGNIFICANT WEATHER AND/OR OBSTRUCTIONS TO VISIBILITY.

COZ001>005-013-030-031-260600-
...NORTHWEST COLORADO...
  
CITY           SKY/WX    TMP DP  RH WIND       PRES   REMARKS
CRAIG          FAIR      45  34  65 E5        30.15S                  
HAYDEN         FAIR      50  30  46 E9        30.18S                  
MEEKER         FAIR      45  30  55 NE3       30.17F                  
RANGELY        FAIR      50  34  54 CALM      30.11S                  
RABBIT EARS PA NOT AVBL                                               
STEAMBOAT SPGS FAIR      47  29  50 CALM      30.19S                  
WALDEN         FAIR      39  25  56 S5        30.25S                  
$$

COZ006>008-011-260600-
...WEST CENTRAL VALLEYS...
  
CITY           SKY/WX    TMP DP  RH WIND       PRES   REMARKS
GRAND JUNCTION FAIR      57  35  43 NE5       30.08R                  
MONTROSE       FAIR      54  29  38 SE10      30.17S                  
EAGLE          FAIR      48  24  39 E3        30.21S                  
RIFLE          FAIR      52  29  41 E8        30.13S                  
DELTA          FAIR      60  22  22 CALM      30.12S                  
NUCLA          FAIR      55  25  30 E10       30.20R                  
$$

COZ017>023-064>068-260600-
...SOUTHWEST COLORADO...
  
CITY           SKY/WX    TMP DP  RH WIND       PRES   REMARKS
DURANGO        FAIR      48  33  56 CALM      30.21R                  
CORTEZ         FAIR      48  31  51 E6        30.18R                  
PAGOSA SPRINGS FAIR      43  33  67 CALM      30.27S                  
TELLURIDE      FAIR      45  23  42 SE8       30.36S                  
WOLF CREEK PAS FAIR      36  27  69 SW9       30.52F                  
$$

COZ009-010-012-014-032>034-037-058>063-260600-
...CENTRAL COLORADO...
  
CITY           SKY/WX    TMP DP  RH WIND       PRES   REMARKS
ASPEN          FAIR      44  24  45 SW12      30.24F                  
BUENA VISTA    FAIR      46  29  53 E5        30.30S                  
COPPER MTN     FAIR      37  19  48 SW10      30.44F                  
BERTHOUD PASS  FAIR      30  19  64 W16G23    30.44S WCI  19          
COTTONWOOD PAS FAIR      43  21  42 CALM      30.36F                  
GUNNISON       FAIR      43  26  51 N5        30.27R                  
GRANBY         FAIR      37  22  53 CALM      30.27S                  
KREMMLING      FAIR      41  27  56 E6        30.24S                  
LEADVILLE      FAIR      35  23  61 CALM      30.35R                  
MONARCH PASS   FAIR      36  16  44 W16       30.56F                  
SALIDA         FAIR      49  31  48 SE5       30.35S                  
SUNLIGHT       FAIR      36  21  55 SW6       30.42F                  
WILKERSON PASS FAIR      32  25  74 SW9G16    30.44S WCI  24          
$$

COZ069>075-260600-
...SAN LUIS VALLEY/SANGRE DE CRISTO MOUNTAINS...
  
CITY           SKY/WX    TMP DP  RH WIND       PRES   REMARKS
ALAMOSA        CLOUDY    47  36  65 SE8       30.24S                  
DEL NORTE      FAIR      47  30  51 SW10      30.28R                  
LA VETA PASS   NOT AVBL                                               
SAGUACHE       FAIR      50  32  50 CALM      30.27S                  
$$

COZ035-036-038>040-260600-
...NORTHERN COLORADO FRONT RANGE...
  
CITY           SKY/WX    TMP DP  RH WIND       PRES   REMARKS
DENVER INTL AP FAIR      43  34  70 SE12      30.20F                  
AURORA         PTCLDY    46  31  54 SE13      30.21F                  
FRONT RANGE AP FAIR      48  34  58 SE10      30.22S                  
ERIE MUNI ARPT FAIR      51  29  43 SE7       30.24F                  
BOULDER MUN AP FAIR      52  32  46 CALM      30.18F                  
CENTENNIAL     FAIR      49  32  52 S12       30.21F                  
BROOMFIELD     FAIR      52  32  46 CALM      30.21F                  
FORT COLLINS   FAIR      45  32  60 S9        30.20S                  
LONGMONT       FAIR      46  35  65 CALM      30.21S                  
$$

COZ041-046-047-076>085-087-088-260600-
...PIKES PEAK/PALMER DIVIDE AND SOUTHERN FOOTHILLS...
  
CITY           SKY/WX    TMP DP  RH WIND       PRES   REMARKS
COLO. SPRINGS  FAIR      49  27  42 SE7       30.27S                  
A. F. ACADEMY  FAIR      48  28  45 SE10      30.25S                  
SCHRIEVER AFB  NOT AVBL                                               
CHEYENNE MTN   NOT AVBL                                               
ELLICOTT         N/A    N/A N/A N/A SE13      30.25S                  
FALCON         FAIR      42  26  53 SE6       30.30R                  
FORT CARSON    CLOUDY    52  29  42 S8        30.24F                  
LIMON          FAIR      39  27  62 S5        30.24S                  
MONUMENT HILL  FAIR      41  28  60 SE13      30.28F                  
CANON CITY     NOT AVBL                                               
WALSENBURG     NOT AVBL                                               
TRINIDAD       FAIR      48  44  86 SW3       30.26S                  
$$

COZ042>045-048>051-090-091-260600-
...NORTHEAST COLORADO...
  
CITY           SKY/WX    TMP DP  RH WIND       PRES   REMARKS
GREELEY ARPT   FAIR      48  31  51 SE9       30.20S                  
AKRON          FAIR      45  29  53 SE10      30.21S                  
BURLINGTON     FAIR      46  28  49 CALM      30.23R                  
WRAY           FAIR      46  30  53 CALM      30.20F                  
YUMA           NOT AVBL                                               
STERLING       FAIR      43  32  65 CALM      30.18F                  
HOLYOKE        FAIR      43  32  65 CALM      30.21S                  
FORT MORGAN      N/A     44  26  51 E6        30.21S                  
$$

COZ086-089-092>099-260600-
...SOUTHEAST COLORADO...
  
CITY           SKY/WX    TMP DP  RH WIND       PRES   REMARKS
PUEBLO         FAIR      54  32  43 E8        30.21R                  
LA JUNTA       FAIR      51  30  44 E7        30.20F                  
LAMAR          FAIR      45  29  53 CALM      30.19S                  
SPRINGFIELD      N/A     42  32  67 SW3       30.23S                  
$$